CAPE
1503 1476 1453 1421 1346 1221 1125 1030 1006 958 874 798 689 432 356 452 411 456 514 475 426 398 332 204 115 39 28 46 11 0 0 0 0 0 0 0 0 0 0 0 0 0
1557 1528 1476 1415 1288 1160 1096 994 948 865 810 726 640 445 395 391 284 286 411 430 404 402 266 150 128 76 0 0 0 0 0 0 0 0 0 0 0 0 0 0 0 0
1590 1562 1514 1416 1311 1218 1103 978 897 727 729 642 642 443 460 412 335 234 304 337 368 277 149 149 100 0 0 0 0 0 0 0 0 0 0 0 0 0 0 0 0 0
1601 1552 1501 1429 1331 1263 1119 992 848 756 797 658 508 474 462 453 366 304 280 307 245 132 162 27 2 0 0 0 0 0 0 0 0 0 0 0 0 0 0 0 0 0
1563 1541 1481 1409 1348 1238 1122 1019 894 842 854 657 501 480 490 394 274 277 321 264 180 199 130 7 5 0 0 0 0 0 0 0 0 0 0 0 0 0 0 0 0 0
1527 1485 1413 1360 1298 1210 1142 1069 890 915 820 681 542 466 384 280 277 307 292 277 300 265 72 3 3 0 0 0 0 0 0 0 0 0 0 0 0 0 0 0 0 0
1486 1433 1376 1315 1248 1194 1146 1044 895 967 905 763 600 509 364 280 290 296 310 315 312 122 2 5 0 0 0 0 0 0 0 0 0 0 0 0 0 0 0 0 0 0
1427 1392 1344 1330 1275 1255 1171 998 962 947 932 815 670 605 392 40 258 271 301 310 248 79 1 3 2 0 0 0 0 0 0 0 0 0 0 0 0 0 0 0 0 0
1434 1431 1399 1381 1341 1206 1069 997 966 948 927 822 677 594 423 282 253 270 280 279 205 103 1 3 2 0 0 0 0 0 0 0 0 0 0 0 0 0 0 0 0 0
1494 1470 1434 1378 1256 1146 1088 1068 983 942 827 745 728 484 372 0 235 285 236 209 96 0 0 0 0 0 0 0 0 0 0 0 0 0 0 0 0 0 0 0 0 0
1527 1483 1433 1351 1264 1239 1173 1164 1050 973 857 778 710 440 314 8 242 194 145 110 10 0 0 0 0 0 0 0 0 0 0 0 0 0 0 0 0 0 0 0 7 4
1564 1494 1434 1362 1324 1275 1171 1070 996 964 822 797 719 401 294 258 224 20 106 15 0 0 0 0 0 0 0 0 0 0 0 0 0 0 0 0 0 0 0 0 0 0
1585 1484 1388 1371 1323 1263 1163 1072 1013 930 784 745 560 410 336 223 168 115 0 0 0 0 0 0 0 0 0 0 0 0 0 0 0 0 0 0 0 0 0 0 0 0
1650 1526 1454 1404 1348 1273 1098 983 947 887 791 534 482 426 310 189 113 6 0 0 0 0 0 0 0 0 0 0 0 0 0 0 0 0 0 0 0 0 0 0 0 0
1707 1648 1588 1489 1308 1129 1031 847 910 856 804 581 394 368 284 165 126 123 103 0 0 0 0 0 0 0 0 0 0 0 0 0 0 0 0 16 17 2 0 0 0 0
1720 1732 1734 1548 1320 1022 931 898 831 812 755 598 338 262 196 148 136 130 102 0 0 0 0 0 0 0 0 0 0 0 0 0 0 0 4 10 4 0 0 0 0 12
1758 1734 1736 1524 1379 1172 1126 1018 886 789 737 550 261 202 188 161 116 116 0 0 0 0 0 0 0 0 0 0 0 0 0 0 0 1 5 10 5 0 0 0 0 18
1824 1774 1645 1355 1338 1266 1125 1097 983 831 665 468 275 229 212 156 114 105 19 0 0 0 0 0 0 0 0 0 0 0 0 0 0 26 108 0 0 0 0 2 14 18
1828 1814 1692 1531 1443 1286 1214 1163 950 867 692 358 241 238 200 128 101 67 0 0 0 0 0 0 0 0 0 0 0 0 0 0 0 0 0 0 0 0 14 22 26 22
1809 1750 1591 1492 1489 1471 1334 1177 824 859 680 366 216 195 153 105 77 23 0 0 0 0 0 0 0 0 0 0 0 0 0 0 0 0 2 10 24 36 41 48 50 34
1683 1616 1575 1564 1462 1286 1123 1020 848 794 634 350 179 158 117 80 38 11 2 0 0 0 0 0 0 0 0 0 0 0 0 0 1 18 32 49 72 73 66 66 59 31
1636 1554 1535 1529 1220 1214 982 786 818 785 633 367 137 105 94 38 3 2 2 13 3 0 3 0 4 0 0 0 0 0 0 30 49 60 81 78 78 95 78 94 65 17
1587 1550 1594 1536 1265 1142 872 765 789 718 570 405 137 100 65 10 1 2 2 3 6 2 2 2 1 0 0 0 26 61 43 33 44 28 34 68 66 50 68 4 0 0
1622 1630 1666 1358 1239 1261 920 755 706 663 585 407 167 90 52 13 5 7 7 8 7 5 7 8 2 96 87 36 29 22 24 16 132 146 156 145 111 66 58 23 9 0
1684 1681 1685 1496 1229 1263 831 752 710 715 584 368 143 78 54 30 18 10 12 11 7 6 6 3 179 150 25 21 14 20 28 29 92 90 81 7 9 0 0 11 18 27
1632 1517 1449 1402 1131 940 850 761 742 685 522 288 128 70 51 41 21 2 6 1 4 13 18 157 180 28 16 16 20 31 29 164 98 4 20 7 22 31 25 31 22 9
Wind_Speed
28 27 26 24 23 22 21 21 20 21 21 21 21 22 23 23 23 23 24 25 25 25 23 24 25 nan nan nan nan nan nan nan nan nan nan nan nan nan nan nan nan nan
28 27 24 23 22 21 20 19 20 21 22 23 23 24 24 24 23 24 25 26 25 24 22 23 23 nan nan nan nan nan nan nan nan nan nan nan nan nan nan nan nan nan
27 25 23 21 21 20 20 20 20 21 23 24 25 24 25 24 25 24 25 26 26 23 21 21 21 nan nan nan nan nan nan nan nan nan nan nan nan nan nan nan nan nan
25 23 21 20 21 20 21 22 22 23 24 25 24 24 25 25 25 25 24 23 22 19 18 nan nan nan nan nan nan nan nan nan nan nan nan nan nan nan nan nan nan nan
24 21 20 21 21 22 22 23 24 23 24 25 26 25 26 26 25 24 22 20 18 16 14 nan nan nan nan nan nan nan nan nan nan nan nan nan nan nan nan nan nan nan
22 20 21 22 22 23 22 23 24 24 26 27 26 26 25 25 24 22 20 18 16 15 nan nan nan nan nan nan nan nan nan nan nan nan nan nan nan nan nan nan nan nan
21 21 22 23 23 22 23 24 25 25 26 26 27 25 25 24 22 20 18 17 17 16 nan nan nan nan nan nan nan nan nan nan nan nan nan nan nan nan nan nan nan nan
22 23 23 23 23 22 23 24 25 25 26 27 26 24 23 nan 21 19 17 17 17 nan nan nan nan nan nan nan nan nan nan nan nan nan nan nan nan nan nan nan nan nan
23 23 23 23 23 23 23 24 25 26 25 26 25 24 22 21 20 18 18 18 17 16 nan nan nan nan nan nan nan nan nan nan nan nan nan nan nan nan nan nan nan nan
24 24 23 23 24 23 24 24 25 25 25 25 25 23 22 nan 19 18 18 17 nan nan nan nan nan nan nan nan nan nan nan nan nan nan nan nan nan nan nan nan nan nan
24 24 24 24 24 23 24 25 24 25 25 26 25 23 21 nan 19 17 17 16 nan nan nan nan nan nan nan nan nan nan nan nan nan nan nan nan nan nan nan nan nan nan
24 24 24 25 25 24 24 24 24 25 25 24 24 22 21 19 19 nan 16 nan nan nan nan nan nan nan nan nan nan nan nan nan nan nan nan nan nan nan nan nan nan nan
25 25 25 25 24 24 23 24 24 25 25 24 22 22 21 20 18 17 nan nan nan nan nan nan nan nan nan nan nan nan nan nan nan nan nan nan nan nan nan nan nan nan
25 26 25 25 24 24 24 24 24 24 24 24 23 22 20 20 19 nan nan nan nan nan nan nan nan nan nan nan nan nan nan nan nan nan nan nan nan nan nan nan nan nan
26 26 26 25 24 24 25 26 24 24 25 24 23 21 19 19 18 18 18 nan nan nan nan nan nan nan nan nan nan nan nan nan nan nan nan nan nan nan nan nan nan nan
26 26 25 26 24 23 24 26 26 25 26 25 23 21 20 20 19 18 18 nan nan nan nan nan nan nan nan nan nan nan nan nan nan nan nan nan nan nan nan nan nan nan
27 26 25 24 23 24 25 26 26 26 27 25 24 22 21 20 20 19 nan nan nan nan nan nan nan nan nan nan nan nan nan nan nan nan nan nan nan nan nan nan nan nan
26 26 25 23 24 25 25 25 27 28 28 26 24 22 21 21 20 19 nan nan nan nan nan nan nan nan nan nan nan nan nan nan nan nan 26 nan nan nan nan nan nan nan
26 26 26 24 23 26 26 27 28 29 28 27 24 22 22 21 20 nan nan nan nan nan nan nan nan nan nan nan nan nan nan nan nan nan nan nan nan nan nan nan nan nan
26 26 25 25 26 27 27 28 29 29 28 26 24 23 22 21 nan nan nan nan nan nan nan nan nan nan nan nan nan nan nan nan nan nan nan nan nan nan nan nan nan nan
27 27 25 25 27 29 28 28 29 29 28 26 24 23 22 nan nan nan nan nan nan nan nan nan nan nan nan nan nan nan nan nan nan nan nan nan nan nan nan nan nan nan
28 27 26 25 28 29 30 30 29 29 28 26 25 23 nan nan nan nan nan nan nan nan nan nan nan nan nan nan nan nan nan nan nan nan nan nan nan nan nan nan nan nan
28 27 27 27 28 30 31 31 30 29 28 27 25 23 nan nan nan nan nan nan nan nan nan nan nan nan nan nan nan nan nan nan nan nan nan nan nan nan nan nan nan nan
28 28 28 27 29 30 32 30 29 29 27 26 24 nan nan nan nan nan nan nan nan nan nan nan nan nan nan nan nan nan nan nan 32 34 35 36 36 nan nan nan nan nan
28 28 28 28 29 31 32 30 28 28 27 26 24 nan nan nan nan nan nan nan nan nan nan nan 29 30 nan nan nan nan nan nan nan nan nan nan nan nan nan nan nan nan
29 28 28 30 31 31 30 28 28 28 27 26 25 nan nan nan nan nan nan nan nan nan nan 30 31 nan nan nan nan nan nan 35 nan nan nan nan nan nan nan nan nan nan
Wind_Direction
281 279 281 281 279 277 277 277 277 280 277 275 277 277 279 278 282 284 286 288 291 293 293 292 292 nan nan nan nan nan nan nan nan nan nan nan nan nan nan nan nan nan
282 281 279 278 274 272 272 275 280 280 276 274 272 274 274 280 282 285 288 290 290 292 290 290 291 nan nan nan nan nan nan nan nan nan nan nan nan nan nan nan nan nan
281 282 284 281 276 277 279 277 276 274 274 272 271 274 278 280 284 283 287 290 291 290 285 286 288 nan nan nan nan nan nan nan nan nan nan nan nan nan nan nan nan nan
282 282 279 276 274 278 277 277 274 271 271 273 278 280 281 282 283 286 287 289 289 286 283 nan nan nan nan nan nan nan nan nan nan nan nan nan nan nan nan nan nan nan
281 278 274 271 269 272 276 280 280 278 280 280 279 281 282 284 285 287 289 287 284 281 283 nan nan nan nan nan nan nan nan nan nan nan nan nan nan nan nan nan nan nan
279 275 270 267 268 274 277 281 283 283 281 283 287 284 284 286 288 291 290 286 277 278 nan nan nan nan nan nan nan nan nan nan nan nan nan nan nan nan nan nan nan nan
277 269 267 263 267 274 278 281 282 283 284 285 283 285 285 288 290 290 287 281 278 278 nan nan nan nan nan nan nan nan nan nan nan nan nan nan nan nan nan nan nan nan
271 262 263 262 270 274 277 281 281 281 283 283 287 284 287 nan 290 286 281 279 278 nan nan nan nan nan nan nan nan nan nan nan nan nan nan nan nan nan nan nan nan nan
265 262 263 267 273 273 277 281 280 279 282 285 282 283 284 287 287 284 281 278 277 280 nan nan nan nan nan nan nan nan nan nan nan nan nan nan nan nan nan nan nan nan
264 262 267 269 273 273 280 279 276 278 281 281 280 281 285 nan 281 281 279 279 nan nan nan nan nan nan nan nan nan nan nan nan nan nan nan nan nan nan nan nan nan nan
263 263 266 270 273 272 279 276 277 277 277 278 279 283 282 nan 278 276 278 279 nan nan nan nan nan nan nan nan nan nan nan nan nan nan nan nan nan nan nan nan nan nan
261 261 267 271 273 275 280 279 278 278 278 276 282 284 283 282 282 nan 279 nan nan nan nan nan nan nan nan nan nan nan nan nan nan nan nan nan nan nan nan nan nan nan
259 261 264 269 273 276 275 274 276 277 278 281 280 282 286 286 281 277 nan nan nan nan nan nan nan nan nan nan nan nan nan nan nan nan nan nan nan nan nan nan nan nan
257 259 264 269 271 274 274 271 272 275 277 276 276 280 286 289 287 nan nan nan nan nan nan nan nan nan nan nan nan nan nan nan nan nan nan nan nan nan nan nan nan nan
251 256 263 268 268 267 269 271 273 276 276 275 276 278 280 286 280 275 273 nan nan nan nan nan nan nan nan nan nan nan nan nan nan nan nan nan nan nan nan nan nan nan
253 256 263 267 268 269 269 270 271 273 275 275 276 278 281 282 279 272 271 nan nan nan nan nan nan nan nan nan nan nan nan nan nan nan nan nan nan nan nan nan nan nan
253 258 265 270 269 267 266 270 274 273 273 274 274 276 280 282 280 274 nan nan nan nan nan nan nan nan nan nan nan nan nan nan nan nan nan nan nan nan nan nan nan nan
258 263 262 261 265 267 269 273 274 274 274 274 274 275 275 277 280 277 nan nan nan nan nan nan nan nan nan nan nan nan nan nan nan nan 291 nan nan nan nan nan nan nan
258 265 268 265 263 266 269 272 275 274 274 273 276 275 273 279 281 nan nan nan nan nan nan nan nan nan nan nan nan nan nan nan nan nan nan nan nan nan nan nan nan nan
260 265 267 269 267 266 270 274 276 275 273 271 271 272 276 277 nan nan nan nan nan nan nan nan nan nan nan nan nan nan nan nan nan nan nan nan nan nan nan nan nan nan
261 265 266 265 268 272 273 274 275 272 271 269 269 274 276 nan nan nan nan nan nan nan nan nan nan nan nan nan nan nan nan nan nan nan nan nan nan nan nan nan nan nan
262 265 265 263 268 272 276 275 273 272 270 265 265 266 nan nan nan nan nan nan nan nan nan nan nan nan nan nan nan nan nan nan nan nan nan nan nan nan nan nan nan nan
262 267 268 269 270 274 274 273 271 267 263 261 265 267 nan nan nan nan nan nan nan nan nan nan nan nan nan nan nan nan nan nan nan nan nan nan nan nan nan nan nan nan
262 268 269 270 273 276 275 270 266 262 262 261 267 nan nan nan nan nan nan nan nan nan nan nan nan nan nan nan nan nan nan nan 292 292 293 296 296 nan nan nan nan nan
261 266 271 272 272 270 270 269 266 263 259 260 262 nan nan nan nan nan nan nan nan nan nan nan 283 287 nan nan nan nan nan nan nan nan nan nan nan nan nan nan nan nan
259 267 270 272 272 268 264 264 261 259 261 263 262 nan nan nan nan nan nan nan nan nan nan 286 286 nan nan nan nan nan nan 295 nan nan nan nan nan nan nan nan nan nan